[[{"header":{"parameterUnit":"m.s-1","parameterCategory":2,"la1":30.2991,"la2":30.254,"lo1":-89.0895,"lo2":-89.0444,"dy":0.0017,"dx":0.0017,"nx":28,"ny":28,"refTime":"2024-05-19T21:00:00:Z","depth":"0","parameterNumber":2,"parameterNumberName":"U-component_of_CURRENTS"},"data":[0,0,0,0,0,0,0,0,0,0,0,0,0,0,0,0,0,0,0,0,0,0,0,0,0,0,0,0,0,0,0,0,0,0,0,0,0,0,0,0,0,0,0,0,0,0,0,0,0,0,0,0,0,0,0,0,0,0,-0.2528,-0.2529,0,-0.2568,-0.2568,-0.2568,-0.2589,-0.259,-0.259,-0.2591,-0.2536,-0.2534,-0.2532,0,0,0,0,0,0,0,0,0,0,0,0,0,-0.2486,-0.2486,-0.2528,-0.2529,-0.253,-0.2568,-0.2568,-0.2568,-0.2589,-0.259,-0.259,-0.2591,-0.2537,-0.2534,-0.2532,0,0,0,0,0,0,0,0,0,0,0,0,0,-0.2506,-0.2486,-0.2527,-0.255,-0.2553,-0.2568,-0.2568,-0.2568,-0.2589,-0.259,-0.2591,-0.2591,-0.2538,-0.2535,-0.2532,-0.2493,0,0,-0.2522,-0.2521,0,0,0,0,0,0,0,0,-0.2505,-0.2507,-0.2545,-0.2548,-0.2552,-0.2581,-0.2534,-0.2541,-0.2588,-0.2568,-0.2591,-0.2592,-0.2546,-0.2542,-0.2539,-0.2491,-0.2488,-0.2522,-0.252,-0.2519,-0.2518,0,0,0,0,0,0,0,-0.2503,-0.2505,-0.2537,-0.2547,-0.2551,-0.2565,-0.2568,-0.2535,-0.2544,-0.257,-0.2573,-0.2588,-0.2546,-0.2542,-0.2538,-0.2487,-0.2522,-0.2519,-0.2517,-0.2516,-0.2408,-0.2407,0,0,0,0,0,0,-0.251,-0.2504,-0.2536,-0.2539,-0.2538,-0.2565,-0.2568,-0.2565,-0.2546,-0.2547,-0.2587,-0.2589,-0.2547,-0.2542,-0.2536,-0.2497,-0.2519,-0.2516,-0.2514,-0.2409,-0.2408,-0.2407,0,0,0,0,0,0,-0.2509,-0.2512,-0.2534,-0.2529,-0.2534,-0.2565,-0.2561,-0.2565,-0.2563,-0.2562,-0.256,-0.2582,-0.2548,-0.254,-0.2503,-0.2495,-0.2514,-0.2512,-0.241,-0.2409,-0.2407,-0.2414,0,0,0,0,0,0,-0.2507,-0.251,-0.2499,-0.2529,-0.2535,-0.2525,-0.2561,-0.2566,-0.2574,-0.2577,-0.2556,-0.2553,-0.2548,-0.2508,-0.25,-0.2491,-0.2509,-0.2412,-0.241,-0.2408,-0.2415,-0.2413,-0.2411,0,0,0,0,0,-0.2505,-0.2467,-0.2497,-0.2501,-0.252,-0.2525,-0.2526,-0.2549,-0.2573,-0.2554,-0.2552,-0.2553,-0.2491,-0.2504,-0.2495,-0.2485,-0.2413,-0.241,-0.2408,-0.2416,-0.2413,-0.2411,0,0,0,0,0,0,-0.242,-0.2468,-0.2501,-0.2475,-0.2501,-0.2531,-0.2513,-0.2544,-0.2529,-0.2528,-0.2534,-0.2528,-0.2495,-0.2481,-0.2496,-0.2447,-0.2454,-0.2449,-0.2462,-0.246,-0.2458,-0.2481,-0.2507,0,0,0,0,0,-0.2406,-0.24,-0.2451,-0.2428,-0.2441,-0.2482,-0.2486,-0.2508,-0.2511,-0.2507,-0.2503,-0.2491,-0.2477,-0.2462,-0.2439,-0.2404,-0.2419,-0.2392,-0.239,-0.2389,-0.24,-0.2409,-0.241,-0.2399,-0.2399,-0.24,0,0,-0.237,-0.2394,-0.2391,-0.2413,-0.2433,-0.2452,-0.2483,-0.248,-0.2497,-0.2499,-0.2489,-0.2477,-0.2465,-0.2435,-0.2419,-0.2424,-0.2399,-0.2386,-0.2385,-0.2398,-0.2407,-0.2408,-0.2409,-0.2398,-0.2398,-0.2398,0,0,-0.231,-0.2315,-0.2311,-0.2338,-0.2376,-0.24,-0.2404,-0.2435,-0.2443,-0.2437,-0.2451,-0.2442,-0.2405,-0.2412,-0.2409,-0.2378,-0.2387,-0.2357,-0.2366,-0.2373,-0.2375,-0.2377,-0.2405,-0.2409,-0.2357,-0.2357,-0.2357,0,-0.2274,-0.2281,-0.2303,-0.2322,-0.2346,-0.2383,-0.2398,-0.2407,-0.2423,-0.2434,-0.2427,-0.242,-0.2405,-0.2408,-0.2398,-0.2377,-0.2383,-0.238,-0.2374,-0.2376,-0.2378,-0.2405,-0.241,-0.2357,-0.2357,-0.2357,-0.2357,0,-0.2238,-0.2254,-0.2243,-0.2295,-0.2309,-0.2312,-0.2358,-0.2364,-0.2383,-0.241,-0.2407,-0.2393,-0.24,-0.2386,-0.2382,-0.2384,-0.2386,-0.2373,-0.2388,-0.238,-0.2409,-0.2414,-0.2357,-0.2357,-0.2357,-0.2357,0,0,-0.2149,-0.2212,-0.2215,-0.2253,-0.2301,-0.2311,-0.2331,-0.2368,-0.2402,-0.2395,-0.2433,-0.2405,-0.2411,-0.2409,-0.2401,-0.2404,-0.2422,-0.2388,-0.2389,-0.2431,-0.2448,-0.247,-0.2477,-0.24,-0.24,-0.2401,-0.2467,0,-0.2128,-0.2155,-0.2194,-0.2229,-0.2252,-0.2306,-0.2332,-0.2369,-0.2393,-0.2427,-0.243,-0.2441,-0.2416,-0.2418,-0.2417,-0.2429,-0.2432,-0.2406,-0.2437,-0.2439,-0.2471,-0.2482,-0.2342,-0.2391,-0.2472,-0.2473,-0.2473,0,-0.2106,-0.2126,-0.2149,-0.2232,-0.2248,-0.2269,-0.2331,-0.2363,-0.2422,-0.2441,-0.246,-0.2471,-0.2489,-0.2456,-0.248,-0.246,-0.245,-0.2452,-0.2454,-0.2479,-0.2469,-0.2409,-0.2397,-0.2133,-0.2481,-0.248,-0.248,0,-0.2042,-0.2111,-0.2124,-0.215,-0.2229,-0.225,-0.2291,-0.2356,-0.2401,-0.2448,-0.2484,-0.2503,-0.2523,-0.2516,-0.2513,-0.2497,-0.2538,-0.2522,-0.2534,-0.2537,-0.2429,-0.2421,-0.218,-0.2523,-0.2523,-0.2523,-0.2523,0,-0.2009,-0.2033,-0.2098,-0.21,-0.2153,-0.2211,-0.2267,-0.232,-0.2392,-0.2451,-0.2478,-0.2514,-0.2533,-0.2558,-0.254,-0.2564,-0.2559,-0.2552,-0.2556,-0.2427,-0.2419,-0.2196,-0.2142,-0.2525,-0.2525,-0.2524,-0.2524,0,-0.195,-0.1986,-0.2027,-0.2092,-0.2125,-0.2157,-0.227,-0.232,-0.2377,-0.2456,-0.2471,-0.2539,-0.2581,-0.2601,-0.2615,-0.2613,-0.2537,-0.2613,-0.2477,-0.2465,-0.2269,-0.2226,-0.2252,-0.2218,-0.2676,-0.2677,-0.2678,0,-0.1924,-0.1927,-0.2012,-0.2045,-0.2076,-0.2143,-0.2207,-0.2299,-0.2357,-0.2462,-0.2498,-0.2564,-0.26,-0.2656,-0.2665,-0.2681,-0.2537,-0.2551,-0.2503,-0.2247,-0.22,-0.2258,-0.223,-0.2359,-0.2358,-0.2356,-0.2355,0,-0.1871,-0.19,-0.1926,-0.1995,-0.2058,-0.2147,-0.2229,-0.2276,-0.2385,-0.2448,-0.2505,-0.2533,-0.2617,-0.2582,-0.2624,-0.26,-0.2414,-0.2527,-0.2263,-0.195,-0.1994,-0.1964,-0.2342,-0.2341,-0.2342,-0.2343,-0.2344,-0.2345,-0.1839,-0.1849,-0.188,-0.1945,-0.203,-0.2104,-0.2132,-0.2233,-0.2307,-0.2362,-0.2448,-0.2396,-0.2354,-0.2415,-0.2411,-0.2167,-0.2386,-0.204,-0.202,-0.2111,-0.2035,-0.2418,-0.2423,-0.2424,-0.2426,-0.2427,-0.2428,0,-0.1781,-0.1783,-0.1834,-0.1899,-0.1959,-0.2024,-0.2118,-0.2115,-0.2161,-0.2194,-0.2234,-0.2001,-0.194,-0.1828,-0.1661,-0.1581,-0.163,-0.1497,-0.1422,-0.1432,-0.1706,-0.1632,-0.1459,-0.146,-0.146,-0.146,-0.146,-0.1461,-0.1741,-0.1731,-0.1744,-0.1789,-0.1844,-0.1855,-0.1874,-0.1887,-0.1862,-0.1726,-0.1547,-0.1498,-0.1198,-0.1012,-0.0802,-0.0867,-0.0791,-0.0931,-0.096,-0.0929,-0.0973,-0.1014,-0.0917,-0.0599,-0.0598,-0.0629,-0.0628,-0.0627]},{"header":{"parameterUnit":"m.s-1","parameterCategory":2,"la1":30.2991,"la2":30.254,"lo1":-89.0895,"lo2":-89.0444,"dy":0.0017,"dx":0.0017,"nx":28,"ny":28,"refTime":"2024-05-19T21:00:00:Z","depth":"0","parameterNumber":3,"parameterNumberName":"V-component_of_CURRENTS"},"data":[0,0,0,0,0,0,0,0,0,0,0,0,0,0,0,0,0,0,0,0,0,0,0,0,0,0,0,0,0,0,0,0,0,0,0,0,0,0,0,0,0,0,0,0,0,0,0,0,0,0,0,0,0,0,0,0,0,0,-0.0201,-0.02,0,-0.0096,-0.0095,-0.0093,-0.0069,-0.007,-0.0071,-0.0071,0.0024,0.0027,0.003,0,0,0,0,0,0,0,0,0,0,0,0,0,-0.0269,-0.0269,-0.0202,-0.02,-0.0199,-0.0096,-0.0095,-0.0093,-0.0069,-0.007,-0.0071,-0.0072,0.0022,0.0026,0.003,0,0,0,0,0,0,0,0,0,0,0,0,0,-0.0208,-0.0269,-0.0202,-0.0176,-0.0173,-0.0097,-0.0095,-0.0093,-0.0068,-0.007,-0.0071,-0.0072,0.0021,0.0026,0.0031,0.0089,0,0,0.0046,0.0049,0,0,0,0,0,0,0,0,-0.0212,-0.0205,-0.0181,-0.0178,-0.0174,-0.0099,-0.0084,-0.0033,-0.0068,-0.0106,-0.0071,-0.0073,-0.0018,-0.001,0.0015,0.0093,0.0097,0.0047,0.005,0.0052,0.0053,0,0,0,0,0,0,0,-0.0216,-0.0209,-0.0158,-0.018,-0.0175,-0.0131,-0.0125,-0.0073,-0.0055,-0.0103,-0.0101,-0.0092,-0.0017,0.001,0.0018,0.0099,0.0047,0.0051,0.0054,0.0056,0.0203,0.0204,0,0,0,0,0,0,-0.0237,-0.0214,-0.0161,-0.0155,-0.0198,-0.013,-0.0122,-0.012,-0.0055,-0.0047,-0.0091,-0.0091,0.0002,0.0012,0.0021,0.0041,0.0052,0.0057,0.006,0.0202,0.0203,0.0204,0,0,0,0,0,0,-0.0239,-0.0234,-0.0166,-0.0183,-0.0172,-0.0128,-0.0125,-0.0117,-0.0095,-0.0046,-0.0038,-0.0079,0.0002,0.0014,0.0067,0.0047,0.0059,0.0064,0.0201,0.0202,0.0204,0.0115,0,0,0,0,0,0,-0.0241,-0.0235,-0.0234,-0.0185,-0.0171,-0.0128,-0.0123,-0.0114,-0.0088,-0.0088,-0.0032,-0.0025,0.0002,0.006,0.0072,0.0054,0.0067,0.02,0.0202,0.0203,0.0116,0.0113,0.011,0,0,0,0,0,-0.0244,-0.0239,-0.0235,-0.0228,-0.0175,-0.0128,-0.0117,-0.0088,-0.0087,-0.0074,-0.0034,-0.0027,0.0078,0.0065,0.008,0.0062,0.0199,0.0201,0.0203,0.0118,0.0114,0.011,0,0,0,0,0,0,-0.026,-0.0234,-0.023,-0.0215,-0.018,-0.0125,-0.0108,-0.0088,-0.0043,-0.0045,-0.0003,0.0008,0.004,0.0081,0.0066,0.0113,0.0136,0.0141,0.0066,0.0063,0.0059,0.0034,0.0072,0,0,0,0,0,-0.0266,-0.0262,-0.0224,-0.0211,-0.0198,-0.0153,-0.0129,-0.011,-0.0067,-0.0049,-0.0012,0.0031,0.0064,0.0086,0.0127,0.0168,0.0175,0.0166,0.0162,0.0159,0.0151,0.0166,0.0161,0.021,0.021,0.021,0,0,-0.0265,-0.0252,-0.0247,-0.0215,-0.0186,-0.0173,-0.0141,-0.011,-0.0106,-0.0044,-0.002,0.0023,0.0074,0.0104,0.0122,0.0133,0.0144,0.0161,0.0157,0.0151,0.0167,0.0162,0.0157,0.0212,0.0212,0.0211,0,0,-0.0267,-0.0255,-0.0255,-0.0235,-0.0202,-0.0178,-0.0174,-0.0123,-0.011,-0.0069,-0.0039,-0.0003,0.0065,0.0086,0.0107,0.012,0.0123,0.0132,0.0093,0.0107,0.0101,0.0097,0.0066,0.006,0.0132,0.0131,0.0131,0,-0.0269,-0.0275,-0.0243,-0.0242,-0.0235,-0.019,-0.0191,-0.0164,-0.0103,-0.0098,-0.0075,0.0008,0.0049,0.007,0.0068,0.0105,0.0103,0.0094,0.0097,0.0093,0.009,0.006,0.0054,0.0127,0.0128,0.0128,0.0129,0,-0.0276,-0.0284,-0.028,-0.0279,-0.0259,-0.025,-0.0221,-0.0204,-0.0182,-0.0157,-0.0124,-0.0053,-0.0008,0.0007,0.0041,0.0041,0.004,0.0083,0.0093,0.0079,0.0049,0.0044,0.0121,0.0123,0.0124,0.0125,0,0,-0.0284,-0.0288,-0.0291,-0.0312,-0.0286,-0.0277,-0.0272,-0.026,-0.0268,-0.021,-0.0208,-0.0146,-0.0105,-0.0077,-0.0027,-0.0012,-0.0045,0.0022,0.0024,-0.0037,-0.0053,-0.0126,-0.0137,-0.0004,-0.0005,-0.0005,-0.008,0,-0.0308,-0.0335,-0.0322,-0.0351,-0.0368,-0.034,-0.0346,-0.0329,-0.0299,-0.0282,-0.0224,-0.0195,-0.0139,-0.0115,-0.0092,-0.0044,-0.0054,-0.003,-0.0006,-0.0006,-0.009,-0.0144,-0.0053,-0.0118,-0.0085,-0.0085,-0.0086,0,-0.0331,-0.0353,-0.039,-0.0422,-0.0425,-0.0432,-0.0443,-0.0438,-0.0407,-0.038,-0.0333,-0.0277,-0.024,-0.0183,-0.014,-0.0128,-0.0106,-0.0076,-0.0078,-0.0116,-0.0086,-0.0086,-0.0127,0.0084,-0.0093,-0.0092,-0.0092,0,-0.038,-0.0408,-0.045,-0.0457,-0.0474,-0.049,-0.0495,-0.0474,-0.0482,-0.0438,-0.043,-0.0362,-0.0335,-0.0277,-0.0221,-0.0177,-0.0195,-0.012,-0.0179,-0.0185,-0.0089,-0.0086,0.0059,-0.0117,-0.0117,-0.0116,-0.0116,0,-0.0425,-0.0459,-0.0483,-0.0509,-0.057,-0.0549,-0.0594,-0.058,-0.056,-0.0584,-0.0485,-0.0487,-0.0355,-0.0338,-0.027,-0.0269,-0.0239,-0.0216,-0.0212,-0.0121,-0.012,0.0085,0.0158,-0.0119,-0.0119,-0.0118,-0.0118,0,-0.0473,-0.0485,-0.0548,-0.0584,-0.0598,-0.0644,-0.0672,-0.0703,-0.0664,-0.0684,-0.0675,-0.0599,-0.0588,-0.0499,-0.043,-0.0361,-0.0257,-0.0343,-0.0279,-0.0267,-0.0109,-0.0047,-0.0069,-0.0002,-0.0403,-0.0405,-0.0407,0,-0.0497,-0.0535,-0.0612,-0.0662,-0.0683,-0.0739,-0.0783,-0.0764,-0.0787,-0.077,-0.0792,-0.0775,-0.0799,-0.0744,-0.0605,-0.0542,-0.0382,-0.0411,-0.0305,-0.0122,-0.0045,-0.0055,0.0005,-0.0214,-0.0215,-0.0215,-0.0215,0,-0.055,-0.0584,-0.0642,-0.0752,-0.0818,-0.0888,-0.0935,-0.0964,-0.095,-0.0971,-0.1009,-0.1029,-0.0961,-0.0851,-0.0752,-0.0654,-0.0277,-0.0418,-0.0199,0.0111,0.0086,0.0161,-0.0176,-0.0216,-0.0216,-0.0216,-0.0216,-0.0216,-0.0591,-0.0658,-0.0747,-0.0852,-0.0936,-0.1025,-0.1081,-0.1131,-0.1194,-0.1181,-0.1193,-0.1103,-0.0936,-0.0789,-0.0697,-0.0288,-0.0375,-0.0094,-0.0042,-0.0077,0.0016,-0.0385,-0.0438,-0.0439,-0.044,-0.0441,-0.0442,0,-0.0646,-0.0725,-0.0836,-0.0973,-0.1086,-0.1095,-0.118,-0.1229,-0.1326,-0.1201,-0.124,-0.0874,-0.073,-0.0428,-0.0026,0.0152,0.0206,0.0281,0.0408,0.0448,0.0161,0.0209,0.026,0.026,0.026,0.0259,0.0259,0.0259,-0.0679,-0.0799,-0.0871,-0.1077,-0.1162,-0.1283,-0.1325,-0.1395,-0.1307,-0.1093,-0.0734,-0.0457,0.0046,0.0282,0.0684,0.0713,0.0875,0.0764,0.0812,0.0791,0.0766,0.0741,0.0812,0.0988,0.0989,0.1147,0.115,0.1151]}],[{"header":{"parameterUnit":"m.s-1","parameterCategory":2,"la1":30.2991,"la2":30.254,"lo1":-89.0895,"lo2":-89.0444,"dy":0.0017,"dx":0.0017,"nx":28,"ny":28,"refTime":"2024-05-19T21:00:00:Z","depth":"2","parameterNumber":2,"parameterNumberName":"U-component_of_CURRENTS"},"data":[0,0,0,0,0,0,0,0,0,0,0,0,0,0,0,0,0,0,0,0,0,0,0,0,0,0,0,0,0,0,0,0,0,0,0,0,0,0,0,0,0,0,0,0,0,0,0,0,0,0,0,0,0,0,0,0,0,0,-0.1848,-0.1848,0,-0.1835,-0.1835,-0.1834,-0.1821,-0.1821,-0.1822,-0.1822,-0.1732,-0.1729,-0.1727,0,0,0,0,0,0,0,0,0,0,0,0,0,-0.1801,-0.1802,-0.1848,-0.1848,-0.1848,-0.1835,-0.1835,-0.1834,-0.1821,-0.1821,-0.1822,-0.1822,-0.1733,-0.173,-0.1727,0,0,0,0,0,0,0,0,0,0,0,0,0,-0.1805,-0.1803,-0.1848,-0.1843,-0.1843,-0.1835,-0.1835,-0.1834,-0.1821,-0.1821,-0.1822,-0.1822,-0.1734,-0.173,-0.1726,-0.1698,0,0,-0.1714,-0.1713,0,0,0,0,0,0,0,0,-0.1805,-0.1806,-0.1843,-0.1843,-0.1843,-0.1833,-0.1785,-0.1786,-0.1821,-0.1826,-0.1822,-0.1822,-0.1761,-0.1755,-0.1748,-0.1694,-0.169,-0.1714,-0.1712,-0.171,-0.1709,0,0,0,0,0,0,0,-0.1805,-0.1807,-0.1839,-0.1844,-0.1843,-0.1821,-0.1822,-0.1785,-0.1788,-0.1825,-0.1825,-0.1829,-0.1759,-0.1751,-0.1745,-0.1689,-0.1714,-0.1711,-0.1709,-0.1707,-0.1591,-0.1591,0,0,0,0,0,0,-0.1817,-0.1807,-0.184,-0.1839,-0.1828,-0.1822,-0.1823,-0.1833,-0.179,-0.1785,-0.1829,-0.1829,-0.1758,-0.175,-0.1742,-0.1711,-0.171,-0.1707,-0.1704,-0.1592,-0.1591,-0.159,0,0,0,0,0,0,-0.1816,-0.182,-0.184,-0.1825,-0.1826,-0.1824,-0.1834,-0.1833,-0.1838,-0.1794,-0.1787,-0.1838,-0.1758,-0.1747,-0.1705,-0.1707,-0.1705,-0.1701,-0.1593,-0.1592,-0.1591,-0.1646,0,0,0,0,0,0,-0.1815,-0.182,-0.1823,-0.1826,-0.1828,-0.1847,-0.1835,-0.1833,-0.1841,-0.184,-0.1799,-0.179,-0.1757,-0.1711,-0.1701,-0.1702,-0.1699,-0.1594,-0.1592,-0.1591,-0.1645,-0.1647,-0.1648,0,0,0,0,0,-0.1813,-0.1813,-0.1824,-0.1828,-0.1836,-0.1848,-0.1847,-0.1842,-0.1841,-0.1846,-0.1806,-0.1792,-0.1695,-0.1707,-0.1696,-0.1696,-0.1595,-0.1593,-0.1591,-0.1644,-0.1646,-0.1648,0,0,0,0,0,0,-0.1781,-0.1812,-0.1824,-0.183,-0.1848,-0.1848,-0.1841,-0.1852,-0.1826,-0.1817,-0.178,-0.1768,-0.173,-0.1701,-0.1716,-0.1655,-0.1643,-0.1639,-0.1687,-0.1689,-0.169,-0.1694,-0.1695,0,0,0,0,0,-0.1782,-0.1791,-0.1823,-0.1823,-0.1836,-0.1845,-0.1847,-0.1854,-0.1837,-0.1828,-0.18,-0.1756,-0.1712,-0.1693,-0.1648,-0.1618,-0.1602,-0.1609,-0.1611,-0.1613,-0.1606,-0.1574,-0.1573,-0.1584,-0.1584,-0.1584,0,0,-0.1763,-0.1783,-0.1785,-0.1817,-0.1823,-0.1833,-0.1845,-0.1854,-0.1849,-0.1819,-0.1787,-0.1759,-0.1702,-0.1664,-0.1646,-0.1644,-0.1607,-0.1611,-0.1613,-0.1605,-0.1572,-0.1571,-0.157,-0.1583,-0.1583,-0.1584,0,0,-0.1741,-0.1758,-0.1769,-0.1789,-0.1818,-0.1821,-0.1834,-0.185,-0.1844,-0.1821,-0.1791,-0.1762,-0.1704,-0.1666,-0.1637,-0.1617,-0.1612,-0.1615,-0.1632,-0.1601,-0.1601,-0.16,-0.1611,-0.1611,-0.1621,-0.1621,-0.1621,0,-0.1715,-0.1745,-0.177,-0.1791,-0.18,-0.1821,-0.1835,-0.1827,-0.1823,-0.1813,-0.1812,-0.1731,-0.1696,-0.1642,-0.1643,-0.1621,-0.1624,-0.1636,-0.1606,-0.1605,-0.1603,-0.1614,-0.1613,-0.1624,-0.1623,-0.1623,-0.1623,0,-0.1712,-0.1738,-0.1741,-0.1774,-0.1785,-0.1798,-0.1809,-0.1809,-0.1806,-0.18,-0.1763,-0.1719,-0.1677,-0.1667,-0.165,-0.1623,-0.1639,-0.1613,-0.161,-0.1605,-0.1618,-0.1615,-0.1627,-0.1626,-0.1625,-0.1625,0,0,-0.164,-0.1727,-0.1726,-0.1752,-0.1784,-0.179,-0.1781,-0.1783,-0.1772,-0.176,-0.1743,-0.1685,-0.169,-0.1657,-0.1643,-0.1625,-0.1632,-0.163,-0.1628,-0.1658,-0.1608,-0.1566,-0.1559,-0.1615,-0.1614,-0.1613,-0.1635,0,-0.1629,-0.1683,-0.1718,-0.1736,-0.1763,-0.178,-0.1767,-0.1764,-0.1756,-0.174,-0.1708,-0.1678,-0.1676,-0.1675,-0.1655,-0.1629,-0.1624,-0.163,-0.1592,-0.1592,-0.1567,-0.1553,-0.1328,-0.1322,-0.1633,-0.1633,-0.1632,0,-0.1615,-0.1656,-0.1699,-0.1744,-0.1752,-0.1752,-0.1746,-0.1744,-0.1726,-0.1723,-0.1707,-0.169,-0.1667,-0.1663,-0.1626,-0.1641,-0.1633,-0.1615,-0.1614,-0.1548,-0.1543,-0.1367,-0.1307,-0.1628,-0.1629,-0.1629,-0.1629,0,-0.1571,-0.1633,-0.167,-0.1686,-0.1733,-0.1734,-0.1743,-0.1736,-0.1725,-0.1723,-0.1713,-0.1691,-0.1675,-0.1654,-0.1638,-0.1639,-0.1603,-0.1587,-0.1542,-0.1541,-0.1322,-0.1303,-0.1553,-0.1553,-0.1553,-0.1553,-0.1553,0,-0.1561,-0.1574,-0.1654,-0.1671,-0.1672,-0.1717,-0.1707,-0.1713,-0.1716,-0.1685,-0.1708,-0.1663,-0.1671,-0.1652,-0.1643,-0.1593,-0.1605,-0.1539,-0.1529,-0.1339,-0.1321,-0.1554,-0.1554,-0.1554,-0.1554,-0.1554,-0.1554,0,-0.1508,-0.1577,-0.1596,-0.1649,-0.1662,-0.1656,-0.1684,-0.1669,-0.1694,-0.1659,-0.166,-0.1647,-0.1628,-0.1646,-0.1615,-0.1583,-0.1548,-0.1529,-0.1336,-0.1301,-0.1514,-0.1517,-0.1472,-0.147,-0.1469,-0.1468,-0.1467,0,-0.149,-0.1507,-0.1555,-0.1566,-0.159,-0.1605,-0.1604,-0.1643,-0.1623,-0.1614,-0.1571,-0.1578,-0.1522,-0.1499,-0.1435,-0.142,-0.1521,-0.1242,-0.1177,-0.1504,-0.1499,-0.1504,-0.1508,-0.0928,-0.0922,-0.0918,-0.0915,0,-0.1417,-0.1433,-0.1454,-0.1492,-0.1501,-0.1512,-0.1519,-0.1485,-0.1508,-0.1496,-0.1438,-0.1404,-0.1345,-0.119,-0.1198,-0.116,-0.1228,-0.1154,-0.1503,-0.0993,-0.0994,-0.0989,-0.101,-0.0876,-0.088,-0.0883,-0.0885,-0.0886,-0.1327,-0.1322,-0.1367,-0.1383,-0.1413,-0.1402,-0.1335,-0.135,-0.1314,-0.1242,-0.1286,-0.1193,-0.1095,-0.0973,-0.0915,-0.0881,-0.0974,-0.0915,-0.0926,-0.0942,-0.0884,-0.0883,-0.0737,-0.074,-0.0742,-0.0744,-0.0746,0,-0.1214,-0.1237,-0.1259,-0.1271,-0.1251,-0.1321,-0.1255,-0.1144,-0.105,-0.1087,-0.1062,-0.0868,-0.0732,-0.0702,-0.0518,-0.0487,-0.0475,-0.0517,-0.0455,-0.0489,-0.0521,-0.0442,-0.0178,-0.0177,-0.0177,-0.0177,0,0,-0.1155,-0.1147,-0.1172,-0.1113,-0.1119,-0.1015,-0.0941,-0.083,-0.0786,-0.0711,-0.0696,-0.0766,-0.0663,-0.0457,-0.0357,-0.0239,-0.0401,-0.0235,-0.0665,-0.0625,-0.0659,-0.0694,-0.0604,0,0,0,0,0]},{"header":{"parameterUnit":"m.s-1","parameterCategory":2,"la1":30.2991,"la2":30.254,"lo1":-89.0895,"lo2":-89.0444,"dy":0.0017,"dx":0.0017,"nx":28,"ny":28,"refTime":"2024-05-19T21:00:00:Z","depth":"2","parameterNumber":3,"parameterNumberName":"V-component_of_CURRENTS"},"data":[0,0,0,0,0,0,0,0,0,0,0,0,0,0,0,0,0,0,0,0,0,0,0,0,0,0,0,0,0,0,0,0,0,0,0,0,0,0,0,0,0,0,0,0,0,0,0,0,0,0,0,0,0,0,0,0,0,0,-0.0009,-0.0008,0,0.0154,0.0156,0.0158,0.0233,0.0232,0.0232,0.0232,0.0377,0.0381,0.0385,0,0,0,0,0,0,0,0,0,0,0,0,0,-0.0069,-0.007,-0.0009,-0.0007,-0.0005,0.0154,0.0156,0.0159,0.0233,0.0232,0.0232,0.0232,0.0376,0.0381,0.0386,0,0,0,0,0,0,0,0,0,0,0,0,0,0.0012,-0.007,-0.001,0.005,0.0057,0.0153,0.0156,0.0159,0.0233,0.0232,0.0232,0.0232,0.0374,0.038,0.0386,0.0431,0,0,0.0405,0.0408,0,0,0,0,0,0,0,0,0.0007,0.0014,0.0039,0.0046,0.0054,0.0172,0.0189,0.0249,0.0233,0.0167,0.0232,0.0231,0.0307,0.0318,0.0351,0.0438,0.0444,0.0406,0.0409,0.0412,0.0414,0,0,0,0,0,0,0,0.0001,0.0009,0.0056,0.0042,0.0051,0.0133,0.0143,0.0201,0.0237,0.0173,0.0178,0.0195,0.0311,0.0345,0.0355,0.0446,0.0405,0.0411,0.0415,0.0417,0.0581,0.0582,0,0,0,0,0,0,-0.003,0.0002,0.0051,0.0061,0.0028,0.0134,0.0145,0.0135,0.0237,0.0252,0.0195,0.0198,0.0335,0.0348,0.036,0.0434,0.0412,0.0418,0.0421,0.058,0.0581,0.0582,0,0,0,0,0,0,-0.0033,-0.0029,0.0044,0.0037,0.0052,0.0134,0.0124,0.0138,0.0161,0.0254,0.0269,0.0201,0.0335,0.0352,0.041,0.0439,0.042,0.0426,0.058,0.0581,0.0582,0.0571,0,0,0,0,0,0,-0.0036,-0.0031,-0.0047,0.0033,0.0051,0.0097,0.0124,0.0142,0.0173,0.0178,0.0264,0.0278,0.0336,0.04,0.0416,0.0447,0.0431,0.0579,0.058,0.0581,0.0571,0.0572,0.0573,0,0,0,0,0,-0.0039,-0.0067,-0.005,-0.0043,0.0024,0.0097,0.0114,0.0174,0.0173,0.019,0.0244,0.0275,0.0419,0.0406,0.0424,0.0458,0.0578,0.058,0.0581,0.057,0.0572,0.0573,0,0,0,0,0,0,-0.0098,-0.0059,-0.0039,-0.0054,0.0016,0.0109,0.0123,0.016,0.0218,0.021,0.0286,0.0306,0.0366,0.0407,0.0389,0.0506,0.0503,0.0508,0.0489,0.0491,0.0491,0.0481,0.0436,0,0,0,0,0,-0.0121,-0.0134,-0.0062,-0.0068,-0.0047,0.0033,0.0066,0.0108,0.0171,0.0195,0.026,0.0323,0.039,0.0431,0.049,0.0557,0.0584,0.0588,0.0589,0.059,0.0593,0.0688,0.0698,0.0587,0.0587,0.0587,0,0,-0.0139,-0.0123,-0.0126,-0.008,-0.0032,0.0018,0.0051,0.0092,0.0141,0.0201,0.0269,0.0322,0.0403,0.0481,0.0512,0.0519,0.0623,0.0592,0.0592,0.0595,0.0691,0.0702,0.0711,0.0588,0.0588,0.0588,0,0,-0.0174,-0.0177,-0.0189,-0.0139,-0.0076,-0.0013,-0.001,0.0078,0.0116,0.0185,0.0244,0.0317,0.0407,0.0498,0.0547,0.0587,0.0615,0.0593,0.061,0.0702,0.0712,0.0722,0.0715,0.0724,0.0607,0.0607,0.0607,0,-0.0196,-0.0203,-0.0172,-0.0156,-0.0111,-0.0034,-0.0002,0.0059,0.0161,0.0207,0.0195,0.0366,0.0426,0.0559,0.0569,0.0594,0.0609,0.06,0.0704,0.0715,0.0725,0.0716,0.0727,0.0607,0.0607,0.0607,0.0607,0,-0.022,-0.0216,-0.0218,-0.017,-0.0115,-0.008,0.0014,0.0068,0.0112,0.0191,0.0297,0.0388,0.0495,0.0528,0.0558,0.0673,0.0642,0.0684,0.0701,0.0736,0.0723,0.0734,0.0606,0.0606,0.0606,0.0606,0,0,-0.0281,-0.0245,-0.0241,-0.0212,-0.0123,-0.0072,0.0,0.0113,0.0176,0.0262,0.035,0.0471,0.0516,0.0573,0.0638,0.0721,0.0782,0.0721,0.0726,0.071,0.0909,0.0842,0.0847,0.0844,0.0847,0.085,0.0851,0,-0.0298,-0.0295,-0.0251,-0.0189,-0.0167,-0.0067,0.0009,0.0119,0.0207,0.0311,0.0418,0.0513,0.0537,0.0581,0.0672,0.0756,0.0819,0.0772,0.0881,0.0882,0.082,0.0863,0.0819,0.0815,0.0862,0.0863,0.0865,0,-0.0322,-0.0315,-0.0297,-0.0199,-0.0177,-0.0121,0.0021,0.0099,0.026,0.0322,0.044,0.0521,0.0646,0.0655,0.0818,0.078,0.0835,0.0894,0.0897,0.0853,0.084,0.0801,0.0833,0.0883,0.0882,0.0881,0.0879,0,-0.038,-0.0326,-0.0319,-0.0289,-0.0178,-0.0138,-0.0063,0.0092,0.0169,0.032,0.0375,0.0546,0.0597,0.0729,0.0808,0.0825,0.0953,0.1006,0.0996,0.0987,0.0981,0.0968,0.1132,0.1132,0.1132,0.1132,0.1132,0,-0.0409,-0.0388,-0.0355,-0.0344,-0.0299,-0.0201,-0.0112,-0.0017,0.0127,0.0211,0.0357,0.042,0.0619,0.0709,0.0807,0.0894,0.0951,0.0995,0.1009,0.0967,0.0953,0.1052,0.1043,0.1132,0.1132,0.1132,0.1132,0,-0.0457,-0.0445,-0.0425,-0.0355,-0.0336,-0.0307,-0.0178,-0.0097,0.002,0.0121,0.0157,0.0325,0.0424,0.0588,0.0771,0.0859,0.0978,0.0995,0.087,0.087,0.0946,0.0937,0.1019,0.1017,0.1015,0.1014,0.1013,0,-0.0476,-0.0491,-0.0467,-0.0466,-0.0441,-0.0385,-0.0329,-0.0182,-0.0099,0.0042,0.0078,0.0194,0.0286,0.0491,0.0681,0.0848,0.0884,0.0881,0.0948,0.0943,0.0948,0.094,0.0932,0.0907,0.0905,0.0903,0.0902,0,-0.0504,-0.0518,-0.051,-0.0536,-0.051,-0.0446,-0.0372,-0.0329,-0.0168,-0.0092,-0.0021,0.0052,0.0241,0.0424,0.063,0.0718,0.0863,0.0855,0.0933,0.0933,0.0837,0.0841,0.0838,0.0889,0.089,0.0891,0.0892,0.0892,-0.0522,-0.0546,-0.0568,-0.0576,-0.0552,-0.0507,-0.0466,-0.0382,-0.0293,-0.0148,-0.0092,0.0079,0.0253,0.0587,0.0636,0.0709,0.0786,0.0838,0.0844,0.0852,0.0831,0.0737,0.076,0.076,0.0761,0.0761,0.0762,0,-0.0529,-0.0568,-0.0593,-0.0587,-0.0558,-0.0544,-0.0473,-0.0423,-0.0363,-0.0169,-0.0054,0.0162,0.038,0.0519,0.0645,0.072,0.0728,0.068,0.0705,0.0719,0.0731,0.0705,0.06,0.0599,0.0599,0.0598,0,0,-0.0533,-0.0577,-0.0602,-0.0586,-0.058,-0.0542,-0.0518,-0.048,-0.034,-0.0195,0.0014,0.0345,0.0504,0.0575,0.0605,0.0601,0.0632,0.0568,0.0698,0.0736,0.0746,0.0826,0.0801,0,0,0,0,0]}],[{"header":{"parameterUnit":"m.s-1","parameterCategory":2,"la1":30.2991,"la2":30.254,"lo1":-89.0895,"lo2":-89.0444,"dy":0.0017,"dx":0.0017,"nx":28,"ny":28,"refTime":"2024-05-19T21:00:00:Z","depth":"4","parameterNumber":2,"parameterNumberName":"U-component_of_CURRENTS"},"data":[0,0,0,0,0,0,0,0,0,0,0,0,0,0,0,0,0,0,0,0,0,0,0,0,0,0,0,0,0,0,0,0,0,0,0,0,0,0,0,0,0,0,0,0,0,0,0,0,0,0,0,0,0,0,0,0,0,0,-0.0469,-0.0468,0,-0.05,-0.0501,-0.0502,-0.055,-0.055,-0.055,-0.055,-0.0647,-0.065,-0.0652,0,0,0,0,0,0,0,0,0,0,0,0,0,-0.0464,-0.0465,-0.0469,-0.0468,-0.0468,-0.05,-0.0501,-0.0502,-0.055,-0.055,-0.055,-0.055,-0.0647,-0.0649,-0.0652,0,0,0,0,0,0,0,0,0,0,0,0,0,-0.0486,-0.0465,-0.0469,-0.0489,-0.0491,-0.05,-0.0501,-0.0503,-0.055,-0.055,-0.055,-0.055,-0.0646,-0.0649,-0.0653,-0.0673,0,0,-0.0664,-0.0666,0,0,0,0,0,0,0,0,-0.0484,-0.0487,-0.0487,-0.0488,-0.049,-0.0514,-0.0535,-0.056,-0.055,-0.0536,-0.055,-0.055,-0.0603,-0.0611,-0.0627,-0.0678,-0.0682,-0.0665,-0.0667,-0.0669,-0.067,0,0,0,0,0,0,0,-0.0483,-0.0486,-0.0489,-0.0486,-0.0488,-0.0501,-0.0506,-0.054,-0.0576,-0.0537,-0.0539,-0.0529,-0.0606,-0.0623,-0.063,-0.0683,-0.0665,-0.0668,-0.067,-0.0672,-0.0821,-0.0822,0,0,0,0,0,0,-0.0462,-0.0484,-0.0488,-0.049,-0.0478,-0.0501,-0.0506,-0.0513,-0.0574,-0.0581,-0.0529,-0.0531,-0.0617,-0.0625,-0.0633,-0.0729,-0.0668,-0.0672,-0.0674,-0.0819,-0.0821,-0.0823,0,0,0,0,0,0,-0.0462,-0.0462,-0.0487,-0.048,-0.0483,-0.05,-0.0508,-0.0513,-0.054,-0.0566,-0.0576,-0.055,-0.0617,-0.0628,-0.0692,-0.073,-0.0674,-0.0677,-0.0817,-0.082,-0.0822,-0.0877,0,0,0,0,0,0,-0.0462,-0.0463,-0.047,-0.0479,-0.0482,-0.0512,-0.0507,-0.0513,-0.0529,-0.0533,-0.0587,-0.0596,-0.0618,-0.0686,-0.0696,-0.0734,-0.068,-0.0815,-0.0818,-0.0821,-0.0873,-0.0881,-0.0888,0,0,0,0,0,-0.0462,-0.0464,-0.0471,-0.0471,-0.0489,-0.0512,-0.0518,-0.0534,-0.053,-0.0557,-0.0595,-0.0594,-0.0713,-0.0691,-0.0702,-0.0742,-0.0813,-0.0817,-0.0821,-0.0869,-0.0879,-0.0888,0,0,0,0,0,0,-0.0463,-0.0468,-0.0476,-0.048,-0.0503,-0.0517,-0.0525,-0.0538,-0.0588,-0.0594,-0.0621,-0.0634,-0.07,-0.0714,-0.0688,-0.0794,-0.0761,-0.0767,-0.0794,-0.0804,-0.0811,-0.0781,-0.0683,0,0,0,0,0,-0.0465,-0.0472,-0.0485,-0.0491,-0.0496,-0.0514,-0.0524,-0.0544,-0.0576,-0.0598,-0.0639,-0.0681,-0.0723,-0.0756,-0.0794,-0.0857,-0.0826,-0.0888,-0.0895,-0.0902,-0.0885,-0.0874,-0.0878,-0.0836,-0.0836,-0.0836,0,0,-0.0464,-0.0466,-0.0471,-0.0492,-0.0503,-0.0522,-0.0524,-0.0547,-0.0579,-0.06,-0.0669,-0.0707,-0.0742,-0.0815,-0.0846,-0.0835,-0.0901,-0.0907,-0.0912,-0.0891,-0.0878,-0.0882,-0.0885,-0.0838,-0.0838,-0.0838,0,0,-0.0456,-0.0471,-0.0472,-0.049,-0.0509,-0.0532,-0.054,-0.0579,-0.0615,-0.0685,-0.0703,-0.0758,-0.084,-0.0869,-0.0891,-0.0958,-0.0934,-0.0986,-0.1012,-0.1003,-0.1005,-0.1007,-0.098,-0.0978,-0.0998,-0.0999,-0.0999,0,-0.0458,-0.0459,-0.0479,-0.0483,-0.0499,-0.0535,-0.0554,-0.0594,-0.066,-0.0685,-0.0717,-0.0818,-0.0857,-0.0911,-0.0953,-0.0972,-0.096,-0.0976,-0.101,-0.1011,-0.1012,-0.0983,-0.0981,-0.1002,-0.1001,-0.1001,-0.1001,0,-0.0447,-0.0455,-0.0454,-0.0479,-0.0512,-0.0533,-0.0584,-0.0634,-0.0687,-0.0721,-0.0802,-0.0871,-0.0925,-0.0961,-0.0989,-0.1027,-0.1014,-0.1012,-0.098,-0.1019,-0.0987,-0.0984,-0.1006,-0.1005,-0.1004,-0.1003,0,0,-0.0443,-0.0446,-0.0449,-0.0457,-0.0515,-0.0538,-0.0599,-0.0656,-0.0684,-0.0774,-0.0816,-0.0916,-0.095,-0.0976,-0.1022,-0.1035,-0.1052,-0.1044,-0.1043,-0.1004,-0.1025,-0.0961,-0.0951,-0.1065,-0.1065,-0.1065,-0.1001,0,-0.0434,-0.0427,-0.0453,-0.0479,-0.0486,-0.0547,-0.0597,-0.0658,-0.0731,-0.0787,-0.0848,-0.0909,-0.0957,-0.1005,-0.1029,-0.1044,-0.1045,-0.1068,-0.1003,-0.1,-0.0928,-0.0945,-0.1064,-0.0999,-0.0998,-0.0997,-0.0997,0,-0.0427,-0.042,-0.0433,-0.0469,-0.0481,-0.0517,-0.0603,-0.0659,-0.0733,-0.0796,-0.0863,-0.0901,-0.0956,-0.0989,-0.1011,-0.103,-0.1031,-0.1032,-0.1029,-0.094,-0.0929,-0.0952,-0.099,-0.0991,-0.0991,-0.0992,-0.0992,0,-0.0412,-0.0419,-0.043,-0.044,-0.0486,-0.0519,-0.057,-0.0654,-0.0702,-0.0799,-0.0837,-0.0897,-0.0938,-0.095,-0.0975,-0.0999,-0.0967,-0.0988,-0.0917,-0.0912,-0.0962,-0.0961,-0.0972,-0.0972,-0.0972,-0.0972,-0.0972,0,-0.04,-0.0406,-0.0414,-0.0417,-0.0437,-0.05,-0.0558,-0.0621,-0.0706,-0.075,-0.0839,-0.0871,-0.0934,-0.0929,-0.0949,-0.0915,-0.0941,-0.0904,-0.0889,-0.0989,-0.0992,-0.0959,-0.0959,-0.097,-0.097,-0.0971,-0.0971,0,-0.0386,-0.0389,-0.0394,-0.0421,-0.0428,-0.0457,-0.0534,-0.057,-0.067,-0.0734,-0.076,-0.0837,-0.0836,-0.0855,-0.0859,-0.0866,-0.0844,-0.082,-0.0904,-0.0897,-0.08,-0.0803,-0.073,-0.0728,-0.0725,-0.0723,-0.0721,0,-0.0372,-0.0371,-0.0383,-0.0374,-0.0385,-0.0425,-0.0449,-0.0552,-0.0604,-0.0702,-0.072,-0.073,-0.0772,-0.0711,-0.0753,-0.0736,-0.0744,-0.0735,-0.0792,-0.0781,-0.0774,-0.0782,-0.0788,-0.0718,-0.0717,-0.0716,-0.0716,0,-0.035,-0.0365,-0.0364,-0.0336,-0.0347,-0.0366,-0.0418,-0.0451,-0.0575,-0.0632,-0.0661,-0.0663,-0.0649,-0.0654,-0.0636,-0.0639,-0.0749,-0.071,-0.0716,-0.077,-0.0765,-0.0762,-0.0771,-0.0707,-0.0709,-0.0709,-0.071,0,-0.034,-0.0331,-0.0325,-0.03,-0.0299,-0.0316,-0.0359,-0.0406,-0.0463,-0.0581,-0.0567,-0.0596,-0.0622,-0.0599,-0.0587,-0.0575,-0.0587,-0.0609,-0.0621,-0.0631,-0.0633,-0.0614,-0.0482,0,0,0,0,0,-0.0317,-0.0297,-0.0276,-0.0258,-0.0255,-0.0258,-0.033,-0.0389,-0.0489,-0.0486,-0.0538,-0.0522,-0.0518,-0.0527,-0.0494,-0.055,-0.0592,-0.0515,-0.0624,-0.0661,-0.0671,-0.0687,0,0,0,0,0,0,-0.0302,-0.0287,-0.0268,-0.0222,-0.0196,-0.021,-0.0262,-0.0335,-0.0358,-0.044,-0.0425,-0.0477,-0.0459,-0.0491,-0.0465,-0.0471,-0.0535,-0.0527,-0.0527,-0.0656,-0.0665,-0.0672,-0.0692,0,0,0,0,0]},{"header":{"parameterUnit":"m.s-1","parameterCategory":2,"la1":30.2991,"la2":30.254,"lo1":-89.0895,"lo2":-89.0444,"dy":0.0017,"dx":0.0017,"nx":28,"ny":28,"refTime":"2024-05-19T21:00:00:Z","depth":"4","parameterNumber":3,"parameterNumberName":"V-component_of_CURRENTS"},"data":[0,0,0,0,0,0,0,0,0,0,0,0,0,0,0,0,0,0,0,0,0,0,0,0,0,0,0,0,0,0,0,0,0,0,0,0,0,0,0,0,0,0,0,0,0,0,0,0,0,0,0,0,0,0,0,0,0,0,-0.043,-0.043,0,-0.0471,-0.0472,-0.0473,-0.0487,-0.0487,-0.0487,-0.0486,-0.0471,-0.0471,-0.047,0,0,0,0,0,0,0,0,0,0,0,0,0,-0.0368,-0.0369,-0.043,-0.043,-0.043,-0.0471,-0.0472,-0.0473,-0.0487,-0.0487,-0.0487,-0.0486,-0.0471,-0.0471,-0.047,0,0,0,0,0,0,0,0,0,0,0,0,0,-0.0403,-0.037,-0.043,-0.0441,-0.0442,-0.0471,-0.0472,-0.0473,-0.0488,-0.0487,-0.0486,-0.0486,-0.0471,-0.0471,-0.047,-0.048,0,0,-0.047,-0.047,0,0,0,0,0,0,0,0,-0.0401,-0.0405,-0.0439,-0.044,-0.0442,-0.0472,-0.0444,-0.0472,-0.0488,-0.0473,-0.0486,-0.0486,-0.0465,-0.0465,-0.0478,-0.0479,-0.0479,-0.047,-0.047,-0.047,-0.047,0,0,0,0,0,0,0,-0.0398,-0.0404,-0.0448,-0.0439,-0.0441,-0.0446,-0.045,-0.045,-0.0472,-0.0474,-0.0474,-0.0476,-0.0465,-0.0478,-0.0477,-0.0479,-0.047,-0.047,-0.047,-0.047,-0.049,-0.0491,0,0,0,0,0,0,-0.0389,-0.0402,-0.0447,-0.0449,-0.0417,-0.0447,-0.0452,-0.0464,-0.0473,-0.0474,-0.0476,-0.0476,-0.0479,-0.0478,-0.0477,-0.0499,-0.047,-0.047,-0.047,-0.049,-0.0491,-0.0491,0,0,0,0,0,0,-0.0388,-0.0394,-0.0445,-0.0424,-0.043,-0.0448,-0.0462,-0.0465,-0.0483,-0.0475,-0.0475,-0.0491,-0.0478,-0.0477,-0.0482,-0.0497,-0.047,-0.047,-0.0489,-0.049,-0.0491,-0.0535,0,0,0,0,0,0,-0.0387,-0.0393,-0.0403,-0.0424,-0.0431,-0.0468,-0.0462,-0.0467,-0.0483,-0.0484,-0.0487,-0.0485,-0.0478,-0.0483,-0.0482,-0.0497,-0.0469,-0.0488,-0.049,-0.0491,-0.0533,-0.0538,-0.0542,0,0,0,0,0,-0.0384,-0.04,-0.0404,-0.0409,-0.0443,-0.0468,-0.0473,-0.0485,-0.0485,-0.0498,-0.0498,-0.0485,-0.049,-0.0483,-0.0483,-0.0497,-0.0488,-0.0489,-0.0491,-0.0531,-0.0537,-0.0542,0,0,0,0,0,0,-0.0384,-0.0404,-0.0408,-0.0431,-0.0449,-0.047,-0.0484,-0.0491,-0.0504,-0.0505,-0.0495,-0.0493,-0.0507,-0.0494,-0.0487,-0.0506,-0.0486,-0.0488,-0.0517,-0.0523,-0.0527,-0.0499,-0.0469,0,0,0,0,0,-0.0386,-0.0403,-0.0421,-0.0441,-0.0451,-0.0469,-0.0482,-0.0491,-0.0502,-0.0509,-0.0507,-0.0506,-0.0513,-0.0511,-0.0515,-0.0522,-0.0464,-0.053,-0.0534,-0.0538,-0.0515,-0.0449,-0.0444,-0.0496,-0.0496,-0.0496,0,0,-0.0392,-0.0405,-0.0415,-0.0442,-0.0458,-0.0478,-0.0477,-0.0501,-0.0513,-0.0503,-0.0518,-0.0525,-0.052,-0.0535,-0.0538,-0.0524,-0.0494,-0.054,-0.0543,-0.0517,-0.045,-0.0444,-0.0439,-0.0497,-0.0497,-0.0497,0,0,-0.041,-0.0424,-0.0443,-0.0457,-0.048,-0.0492,-0.0499,-0.0522,-0.0528,-0.0542,-0.0544,-0.0549,-0.0557,-0.0556,-0.0556,-0.0582,-0.0525,-0.0595,-0.0587,-0.0525,-0.0519,-0.0513,-0.0431,-0.0418,-0.059,-0.059,-0.059,0,-0.0416,-0.0442,-0.0453,-0.0472,-0.0485,-0.0498,-0.0521,-0.0531,-0.055,-0.0552,-0.0547,-0.0559,-0.056,-0.057,-0.0582,-0.059,-0.0535,-0.0571,-0.0527,-0.0521,-0.0514,-0.0431,-0.0416,-0.0592,-0.0592,-0.0592,-0.0591,0,-0.0441,-0.0465,-0.0479,-0.0505,-0.0521,-0.0545,-0.0556,-0.0568,-0.0572,-0.0576,-0.0584,-0.0581,-0.0581,-0.0595,-0.0594,-0.0569,-0.0539,-0.0546,-0.051,-0.0511,-0.0424,-0.0407,-0.0595,-0.0595,-0.0594,-0.0593,0,0,-0.0447,-0.0489,-0.0495,-0.0512,-0.0541,-0.0557,-0.0574,-0.0592,-0.0594,-0.0599,-0.0594,-0.0609,-0.0601,-0.0599,-0.0604,-0.0549,-0.0466,-0.0526,-0.0522,-0.0436,-0.0302,-0.0274,-0.0252,-0.0465,-0.0462,-0.046,-0.0259,0,-0.0466,-0.0507,-0.0522,-0.0561,-0.0581,-0.0594,-0.0602,-0.0615,-0.0618,-0.0613,-0.0602,-0.0604,-0.0606,-0.0607,-0.0556,-0.0494,-0.0423,-0.0518,-0.032,-0.0313,-0.0282,-0.0233,-0.0452,-0.0246,-0.0242,-0.0239,-0.0237,0,-0.0483,-0.0507,-0.055,-0.0581,-0.0591,-0.0615,-0.063,-0.064,-0.0635,-0.0628,-0.062,-0.061,-0.056,-0.0555,-0.0406,-0.0465,-0.0377,-0.0314,-0.0305,-0.0245,-0.0254,-0.0245,-0.0205,-0.0208,-0.021,-0.0212,-0.0214,0,-0.0474,-0.0525,-0.056,-0.0573,-0.0608,-0.0628,-0.0647,-0.0652,-0.0647,-0.0641,-0.0613,-0.0576,-0.0521,-0.0428,-0.0308,-0.0347,-0.0112,-0.0154,-0.0037,-0.0034,-0.0101,-0.0109,-0.0018,-0.0018,-0.0019,-0.0019,-0.002,0,-0.0479,-0.0509,-0.0564,-0.0579,-0.0609,-0.0635,-0.0656,-0.0661,-0.0654,-0.062,-0.062,-0.0552,-0.0478,-0.0353,-0.027,-0.0081,-0.0074,-0.0001,0.0028,-0.0126,-0.0139,-0.0088,-0.0098,-0.0012,-0.0013,-0.0015,-0.0016,0,-0.0467,-0.0502,-0.0543,-0.0592,-0.0608,-0.0632,-0.0663,-0.0663,-0.065,-0.0599,-0.0588,-0.0496,-0.0321,-0.0228,-0.0044,0.0,0.0143,0.0208,0.0074,0.0086,0.017,0.0155,0.0359,0.0362,0.0364,0.0366,0.0368,0,-0.0468,-0.0489,-0.0548,-0.0566,-0.0596,-0.0635,-0.0645,-0.0662,-0.0645,-0.0539,-0.049,-0.0332,-0.0255,0.0053,0.0115,0.0288,0.0292,0.0354,0.0228,0.0206,0.0214,0.0194,0.0175,0.0372,0.0372,0.0373,0.0374,0,-0.0464,-0.0491,-0.0519,-0.0553,-0.0582,-0.0609,-0.0623,-0.06,-0.0572,-0.0548,-0.0352,-0.0228,-0.0018,0.0122,0.0263,0.0368,0.0292,0.0379,0.0373,0.0255,0.0224,0.0224,0.0203,0.0382,0.0381,0.038,0.0379,0,-0.0463,-0.048,-0.0513,-0.054,-0.057,-0.0572,-0.0586,-0.0524,-0.0496,-0.0373,-0.0289,-0.0104,-0.0002,0.0172,0.03,0.0403,0.0398,0.0381,0.0374,0.0366,0.0272,0.0227,0.0447,0,0,0,0,0,-0.0458,-0.047,-0.0493,-0.0527,-0.0552,-0.0572,-0.0558,-0.0559,-0.0509,-0.0351,-0.0321,-0.0124,0.0097,0.0188,0.0306,0.0292,0.0372,0.0425,0.0337,0.0428,0.0419,0.0305,0,0,0,0,0,0,-0.0454,-0.0477,-0.0487,-0.0508,-0.0527,-0.0555,-0.0547,-0.0513,-0.0421,-0.034,-0.0205,-0.0127,0.0089,0.004,0.0303,0.0331,0.0282,0.0529,0.053,0.0434,0.0425,0.0417,0.0297,0,0,0,0,0]}]]